FW7500 Weather Reports


Display with metric or nautical units.
time (UTC)temp
F
wind
direction
speed
MPH
gust
MPH
rain 1hr
in
rain 24hr
in
rain mn
in
humidity
%
barometer
mb
20260902083112 75 0 0.0 0.0 0.00 0.00 0.00 84 1018.7
20260902081557 75 0 0.0 0.0 0.00 0.00 0.00 84 1018.5
20260902080100 75 0 0.0 0.0 0.00 0.00 0.00 84 1018.4
20260902074609 75 0 0.0 0.0 0.00 0.00 0.00 83 1018.5
20260902073057 76 0 0.0 0.0 0.00 0.00 0.00 82 1018.5
20260902071604 76 0 0.0 0.0 0.00 0.00 0.00 82 1018.5
20260902070107 76 0 0.0 0.0 0.00 0.00 0.00 82 1018.5
20260902064554 76 0 0.0 0.0 0.00 0.00 0.00 82 1018.4
20260902063100 76 0 0.0 0.0 0.00 0.00 0.00 82 1018.5
20260902061604 76 0 0.0 0.0 0.00 0.00 0.00 82 1018.5
20260902060053 77 0 0.0 0.0 0.00 0.00 0.00 82 1018.6
20260902054601 77 0 0.0 0.0 0.00 0.00 0.00 82 1018.6
20260902053059 77 0 0.0 0.0 0.00 0.00 0.00 82 1018.7
20260902051559 77 0 0.0 0.0 0.00 0.00 0.00 82 1018.6
20260902044555 77 0 0.0 0.0 0.00 0.00 0.00 83 1018.5
20260902043104 77 0 0.0 0.0 0.00 0.00 0.00 83 1018.6
20260902041554 77 0 0.0 0.0 0.00 0.00 0.00 83 1018.7
20260902040055 77 0 0.0 0.0 0.00 0.00 0.00 83 1018.6
20260902034552 77 0 0.0 0.0 0.00 0.00 0.00 83 1018.6
20260902033056 77 0 0.0 0.0 0.00 0.00 0.00 84 1018.6
20260902031606 77 0 0.0 0.0 0.00 0.00 0.00 85 1018.7
20260902030053 77 0 0.0 0.0 0.00 0.00 0.00 85 1018.6
20260902024558 77 0 0.0 0.0 0.00 0.00 0.00 86 1018.8
20260902023103 78 0 0.0 0.0 0.00 0.00 0.00 84 1018.8
20260902021609 78 0 0.0 0.0 0.00 0.00 0.00 84 1018.7
20260902020107 79 0 0.0 0.0 0.00 0.00 0.00 83 1018.6
20260902014557 78 0 0.0 0.0 0.00 0.00 0.00 84 1018.6
20260902013056 78 0 0.0 0.0 0.00 0.00 0.00 84 1018.6
20260902011554 79 0 0.0 0.0 0.00 0.00 0.00 82 1018.5
20260902010100 80 0 0.0 0.0 0.00 0.00 0.00 81 1018.4
20260902004602 81 0 0.0 0.0 0.00 0.00 0.00 78 1018.2
20260902003104 83 0 0.0 0.0 0.00 0.00 0.00 78 1018.2
20260902001557 84 0 0.0 0.0 0.00 0.00 0.00 74 1018.3
20260902000105 86 0 0.0 0.0 0.00 0.00 0.00 70 1018.3
20260901234559 88 0 0.0 0.0 0.00 0.00 0.00 67 1018.2
20260901233059 88 0 0.0 0.0 0.00 0.00 0.00 65 1018.4
20260901231606 89 0 0.0 0.0 0.00 0.00 0.00 63 1018.4
20260901230104 90 0 0.0 0.0 0.00 0.00 0.00 60 1018.5
20260901224601 90 0 0.0 0.0 0.00 0.00 0.00 59 1018.3
20260901223104 91 0 0.0 0.0 0.00 0.00 0.00 59 1018.3
20260901221605 91 0 0.0 0.0 0.00 0.00 0.00 57 1018.4
20260901220127 91 0 0.0 0.0 0.00 0.00 0.00 55 1018.3
20260901214556 92 0 0.0 0.0 0.00 0.00 0.00 55 1018.4
20260901213054 91 0 0.0 0.0 0.00 0.00 0.00 54 1018.4
20260901211553 92 0 0.0 0.0 0.00 0.00 0.00 55 1018.4
20260901210101 92 0 0.0 0.0 0.00 0.00 0.00 53 1018.5
20260901204555 91 0 0.0 0.0 0.00 0.00 0.00 53 1018.7
20260901203056 92 0 0.0 0.0 0.00 0.00 0.00 53 1018.8
20260901201604 91 0 0.0 0.0 0.00 0.00 0.00 54 1018.8
20260901200048 92 0 0.0 0.0 0.00 0.00 0.00 55 1018.8
20260901194601 92 0 0.0 0.0 0.00 0.00 0.00 54 1019.0
20260901193054 91 0 0.0 0.0 0.00 0.00 0.00 56 1019.2
20260901191607 91 0 0.0 0.0 0.00 0.00 0.00 59 1019.5
20260901190051 91 0 0.0 0.0 0.00 0.00 0.00 56 1019.6
20260901184611 91 0 0.0 0.0 0.00 0.00 0.00 58 1019.8
20260901183056 90 0 0.0 0.0 0.00 0.00 0.00 58 1019.8
20260901181600 90 0 0.0 0.0 0.00 0.00 0.00 59 1019.8
20260901180106 90 0 0.0 0.0 0.00 0.00 0.00 59 1019.9
20260901174559 90 0 0.0 0.0 0.00 0.00 0.00 61 1020.0
20260901173100 89 0 0.0 0.0 0.00 0.00 0.00 61 1020.0
20260901171555 89 0 0.0 0.0 0.00 0.00 0.00 60 1020.0
20260901164604 88 0 0.0 0.0 0.00 0.00 0.00 61 1020.3
20260901163056 89 0 0.0 0.0 0.00 0.00 0.00 63 1020.3
20260901161615 88 0 0.0 0.0 0.00 0.00 0.00 66 1020.5
20260901160113 87 0 0.0 0.0 0.00 0.00 0.00 65 1020.5
20260901154559 86 0 0.0 0.0 0.00 0.00 0.00 69 1020.4
20260901153112 86 0 0.0 0.0 0.00 0.00 0.00 67 1020.5
20260901151603 85 0 0.0 0.0 0.00 0.00 0.00 70 1020.6
20260901150053 85 0 0.0 0.0 0.00 0.00 0.00 70 1020.6
20260901144601 84 0 0.0 0.0 0.00 0.00 0.00 72 1020.6
20260901143123 83 0 0.0 0.0 0.00 0.00 0.00 73 1020.7
20260901141603 83 0 0.0 0.0 0.00 0.00 0.00 73 1020.8
20260901140057 81 0 0.0 0.0 0.00 0.00 0.00 77 1020.7
20260901134556 80 0 0.0 0.0 0.00 0.00 0.00 77 1020.5
20260901133054 79 0 0.0 0.0 0.00 0.00 0.00 79 1020.6
20260901131558 78 0 0.0 0.0 0.00 0.00 0.00 81 1020.6
20260901130106 77 0 0.0 0.0 0.00 0.00 0.00 84 1020.8
20260901124603 75 0 0.0 0.0 0.00 0.00 0.00 85 1020.9
20260901123117 74 0 0.0 0.0 0.00 0.00 0.00 88 1020.8
20260901121601 73 0 0.0 0.0 0.00 0.00 0.00 89 1020.8
20260901120101 72 0 0.0 0.0 0.00 0.00 0.00 90 1020.5
20260901114557 71 0 0.0 0.0 0.00 0.00 0.00 92 1020.3
20260901113059 70 0 0.0 0.0 0.00 0.00 0.00 94 1020.1
20260901111608 69 0 0.0 0.0 0.00 0.00 0.00 94 1019.9
20260901110110 69 0 0.0 0.0 0.00 0.00 0.00 93 1019.9
20260901104555 69 0 0.0 0.0 0.00 0.00 0.00 93 1019.7
20260901103053 70 0 0.0 0.0 0.00 0.00 0.00 92 1019.7
20260901101601 70 0 0.0 0.0 0.00 0.00 0.00 92 1019.5
20260901100104 71 0 0.0 0.0 0.00 0.00 0.00 91 1019.2
20260901094600 71 0 0.0 0.0 0.00 0.00 0.00 90 1019.2
20260901093056 72 0 0.0 0.0 0.00 0.00 0.00 88 1019.1
20260901091554 73 0 0.0 0.0 0.00 0.00 0.00 86 1019.0
20260901084557 75 0 0.0 0.0 0.00 0.00 0.00 83 1018.8